EW8665 Weather Reports


Display with metric or nautical units.
time (UTC)temp
F
wind
direction
speed
MPH
gust
MPH
rain 1hr
in
rain 24hr
in
rain mn
in
humidity
%
barometer
mb
20260502181505 69 44 3.0 6.0 0.00 0.00 0.00 56 1016.2
20260502181005 70 33 3.0 6.0 0.00 0.00 0.00 56 1016.3
20260502180505 70 26 3.0 4.0 0.00 0.00 0.00 56 1016.3
20260502170504 75 6 2.0 5.0 0.00 0.00 0.00 43 1016.1
20260502164004 76 1 2.0 3.0 0.00 0.00 0.00 40 1016.2
20260502163504 76 356 2.0 5.0 0.00 0.00 0.00 40 1016.3
20260502163004 76 339 2.0 5.0 0.00 0.00 0.00 39 1016.5
20260502162505 76 335 3.0 5.0 0.00 0.00 0.00 39 1016.3
20260502162005 77 341 2.0 4.0 0.00 0.00 0.00 40 1016.7
20260502161505 77 344 2.0 5.0 0.00 0.00 0.00 39 1016.7
20260502161004 77 308 3.0 6.0 0.00 0.00 0.00 37 1016.7
20260502160504 78 283 3.0 6.0 0.00 0.00 0.00 36 1016.7
20260502152007 78 288 5.0 8.0 0.00 0.00 0.00 35 1016.9
20260502151504 79 278 5.0 10.0 0.00 0.00 0.00 35 1017.2
20260502151007 79 272 5.0 10.0 0.00 0.00 0.00 35 1017.2
20260502150504 79 265 5.0 10.0 0.00 0.00 0.00 35 1017.2
20260502123504 76 274 5.0 12.0 0.00 0.00 0.00 37 1019.3
20260502123004 77 281 4.0 9.0 0.00 0.00 0.00 38 1019.2
20260502122004 76 269 5.0 11.0 0.00 0.00 0.00 38 1019.3
20260502121005 76 252 6.0 13.0 0.00 0.00 0.00 37 1019.6
20260502120508 76 236 6.0 11.0 0.00 0.00 0.00 38 1019.5
20260502115504 75 223 6.0 13.0 0.00 0.00 0.00 39 1019.9
20260502115004 75 220 7.0 13.0 0.00 0.00 0.00 37 1019.7
20260502114005 75 225 6.0 10.0 0.00 0.00 0.00 38 1019.9
20260502113504 75 232 5.0 11.0 0.00 0.00 0.00 39 1020.0
20260502113004 75 232 5.0 11.0 0.00 0.00 0.00 39 1020.1
20260502112504 75 238 6.0 10.0 0.00 0.00 0.00 39 1020.3
20260502112005 75 236 6.0 10.0 0.00 0.00 0.00 40 1020.2
20260502111505 75 254 4.0 9.0 0.00 0.00 0.00 39 1020.4
20260502111005 74 270 3.0 7.0 0.00 0.00 0.00 41 1020.4
20260502110504 74 277 4.0 9.0 0.00 0.00 0.00 41 1020.5
20260502110005 74 276 4.0 9.0 0.00 0.00 0.00 41 1020.5
20260502105505 74 275 4.0 8.0 0.00 0.00 0.00 43 1020.6
20260502105004 73 278 5.0 10.0 0.00 0.00 0.00 43 1020.7
20260502104504 73 260 5.0 10.0 0.00 0.00 0.00 43 1020.8
20260502104004 73 252 6.0 10.0 0.00 0.00 0.00 42 1020.8
20260502103504 73 248 5.0 10.0 0.00 0.00 0.00 43 1020.9
20260502103005 73 243 4.0 8.0 0.00 0.00 0.00 43 1020.9
20260502102505 73 247 5.0 8.0 0.00 0.00 0.00 43 1020.9
20260502102004 72 247 4.0 8.0 0.00 0.00 0.00 45 1020.9
20260502101004 72 248 3.0 8.0 0.00 0.00 0.00 47 1021.3
20260502100505 72 251 4.0 8.0 0.00 0.00 0.00 47 1021.2
20260502091504 70 267 4.0 7.0 0.00 0.00 0.00 46 1021.7
20260502091005 69 259 4.0 12.0 0.00 0.00 0.00 46 1021.8
20260502090504 69 246 6.0 12.0 0.00 0.00 0.00 46 1021.8
20260502071504 66 237 4.0 9.0 0.00 0.00 0.00 50 1022.0
20260502071004 66 229 2.0 6.0 0.00 0.00 0.00 53 1022.0
20260502070005 65 236 3.0 8.0 0.00 0.00 0.00 54 1021.9
20260502065504 64 227 2.0 4.0 0.00 0.00 0.00 56 1021.9
20260502065004 64 233 2.0 3.0 0.00 0.00 0.00 57 1022.0
20260502064504 63 228 2.0 4.0 0.00 0.00 0.00 62 1021.9
20260502064007 62 205 2.0 4.0 0.00 0.00 0.00 65 1022.1
20260502063504 62 109 2.0 4.0 0.00 0.00 0.00 66 1022.0
20260502063006 60 77 1.0 3.0 0.00 0.00 0.00 68 1021.9
20260502062504 60 78 2.0 3.0 0.00 0.00 0.00 68 1021.8
20260502062004 59 79 1.0 3.0 0.00 0.00 0.00 68 1021.9
20260502061504 59 73 1.0 3.0 0.00 0.00 0.00 68 1021.7
20260502061005 58 68 2.0 3.0 0.00 0.00 0.00 67 1021.9
20260502060504 58 67 1.0 3.0 0.00 0.00 0.00 67 1021.9
20260502055504 57 50 2.0 5.0 0.00 0.00 0.00 65 1021.7
20260502055004 56 47 3.0 6.0 0.00 0.00 0.00 65 1021.9
20260502054504 56 52 3.0 6.0 0.00 0.00 0.00 65 1021.8
20260502054005 55 60 3.0 5.0 0.00 0.00 0.00 66 1021.7
20260502053504 54 64 2.0 5.0 0.00 0.00 0.00 69 1021.6
20260502053004 54 70 2.0 5.0 0.00 0.00 0.00 70 1021.8
20260502052004 53 76 2.0 4.0 0.00 0.00 0.00 69 1021.8
20260502051504 53 81 2.0 4.0 0.00 0.00 0.00 70 1021.8
20260502051004 52 79 2.0 4.0 0.00 0.00 0.00 70 1021.7
20260502050504 52 79 2.0 4.0 0.00 0.00 0.00 71 1021.6
20260502050005 52 79 2.0 5.0 0.00 0.00 0.00 71 1021.6
20260502045507 51 72 2.0 5.0 0.00 0.00 0.00 72 1021.5
20260502044504 51 80 3.0 5.0 0.00 0.00 0.00 73 1021.5
20260502044004 50 84 3.0 5.0 0.00 0.00 0.00 72 1021.5
20260502043504 51 80 2.0 4.0 0.00 0.00 0.00 72 1021.5
20260502043004 51 84 2.0 4.0 0.00 0.00 0.00 72 1021.7
20260502042504 50 92 2.0 4.0 0.00 0.00 0.00 72 1021.5
20260502042005 50 91 2.0 4.0 0.00 0.00 0.00 72 1021.5
20260502041504 50 94 1.0 3.0 0.00 0.00 0.00 73 1021.8
20260502041004 50 90 1.0 2.0 0.00 0.00 0.00 72 1021.5
20260502040504 50 95 1.0 2.0 0.00 0.00 0.00 72 1021.6
20260502040004 50 93 1.0 2.0 0.00 0.00 0.00 72 1021.7
20260502035504 50 90 2.0 3.0 0.00 0.00 0.00 71 1021.4
20260502035005 50 86 2.0 3.0 0.00 0.00 0.00 71 1021.6
20260502034504 50 87 2.0 4.0 0.00 0.00 0.00 70 1021.6
20260502034007 50 85 2.0 4.0 0.00 0.00 0.00 69 1021.5
20260502033505 50 83 3.0 4.0 0.00 0.00 0.00 69 1021.7
20260502033004 50 79 3.0 4.0 0.00 0.00 0.00 68 1021.7
20260502032504 51 36 1.0 3.0 0.00 0.00 0.00 68 1021.8
20260502032004 51 259 1.0 3.0 0.00 0.00 0.00 67 1021.9
20260502031504 51 250 1.0 3.0 0.00 0.00 0.00 67 1021.9
20260502031004 51 249 1.0 3.0 0.00 0.00 0.00 66 1021.8
20260502030504 52 243 2.0 4.0 0.00 0.00 0.00 66 1021.8
20260502030004 52 100 3.0 6.0 0.00 0.00 0.00 66 1021.7
20260502025504 52 106 3.0 6.0 0.00 0.00 0.00 65 1021.6
20260502025004 53 90 2.0 4.0 0.00 0.00 0.00 66 1021.6
20260502024504 53 86 2.0 4.0 0.00 0.00 0.00 65 1021.3
20260502023505 53 96 2.0 4.0 0.00 0.00 0.00 65 1021.5
20260502023004 53 101 2.0 4.0 0.00 0.00 0.00 64 1021.5
20260502022504 53 100 3.0 5.0 0.00 0.00 0.00 63 1021.6
20260502022004 53 105 3.0 5.0 0.00 0.00 0.00 64 1021.5
20260502021507 53 108 2.0 5.0 0.00 0.00 0.00 64 1021.4
20260502021004 53 104 2.0 4.0 0.00 0.00 0.00 64 1021.8
20260502020005 53 88 2.0 4.0 0.00 0.00 0.00 64 1021.6
20260502015504 53 84 2.0 3.0 0.00 0.00 0.00 63 1021.8
20260502015004 53 81 2.0 4.0 0.00 0.00 0.00 62 1021.6
20260502014504 53 78 2.0 4.0 0.00 0.00 0.00 62 1021.7
20260502014004 53 83 3.0 5.0 0.00 0.00 0.00 62 1021.7
20260502013507 53 91 3.0 5.0 0.00 0.00 0.00 63 1021.7
20260502013004 53 94 3.0 5.0 0.00 0.00 0.00 63 1021.9
20260502012504 53 100 3.0 5.0 0.00 0.00 0.00 64 1022.0
20260502012004 53 96 3.0 4.0 0.00 0.00 0.00 64 1022.1
20260502011504 53 95 2.0 3.0 0.00 0.00 0.00 63 1021.9
20260502010505 53 89 2.0 4.0 0.00 0.00 0.00 62 1022.0
20260502010004 53 87 2.0 4.0 0.00 0.00 0.00 62 1022.0
20260502005507 53 82 3.0 4.0 0.00 0.00 0.00 62 1022.1
20260502005004 53 81 3.0 4.0 0.00 0.00 0.00 62 1022.0
20260502004507 53 85 2.0 4.0 0.00 0.00 0.00 62 1022.2
20260502004004 53 83 3.0 5.0 0.00 0.00 0.00 60 1022.1
20260502003505 53 78 3.0 5.0 0.00 0.00 0.00 60 1022.0
20260502002505 54 79 3.0 4.0 0.00 0.00 0.00 58 1022.4
20260502002004 54 79 3.0 5.0 0.00 0.00 0.00 58 1022.1
20260502001504 54 81 3.0 5.0 0.00 0.00 0.00 58 1022.2
20260502001004 54 68 2.0 4.0 0.00 0.00 0.00 58 1022.3
20260502000507 54 54 2.0 4.0 0.00 0.00 0.00 58 1022.4
20260502000004 54 50 2.0 4.0 0.00 0.00 0.00 58 1022.4
20260501235507 54 49 1.0 3.0 0.00 0.00 0.00 58 1022.5
20260501235004 54 46 3.0 7.0 0.00 0.00 0.00 55 1022.4
20260501234004 54 57 4.0 7.0 0.00 0.00 0.00 58 1022.3
20260501233504 54 69 4.0 7.0 0.00 0.00 0.00 58 1022.5
20260501233004 54 71 3.0 6.0 0.00 0.00 0.00 59 1022.5
20260501232503 53 75 3.0 6.0 0.00 0.00 0.00 60 1022.6
20260501232004 53 78 3.0 5.0 0.00 0.00 0.00 59 1022.6
20260501231504 53 78 3.0 5.0 0.00 0.00 0.00 59 1022.6
20260501231004 54 81 2.0 4.0 0.00 0.00 0.00 59 1022.6
20260501230504 54 82 2.0 4.0 0.00 0.00 0.00 59 1022.7
20260501230004 54 79 2.0 5.0 0.00 0.00 0.00 58 1022.7
20260501225004 55 73 2.0 5.0 0.00 0.00 0.00 55 1022.7
20260501224504 55 70 3.0 5.0 0.00 0.00 0.00 55 1022.4
20260501224004 55 72 3.0 5.0 0.00 0.00 0.00 55 1022.7
20260501222504 55 67 3.0 8.0 0.00 0.00 0.00 54 1022.8
20260501222005 55 67 3.0 5.0 0.00 0.00 0.00 54 1022.6
20260501221504 55 64 3.0 5.0 0.00 0.00 0.00 53 1022.6
20260501221004 55 65 3.0 6.0 0.00 0.00 0.00 53 1022.6
20260501220504 55 71 3.0 6.0 0.00 0.00 0.00 53 1022.6
20260501215504 55 70 4.0 7.0 0.00 0.00 0.00 54 1022.8
20260501214504 55 74 3.0 6.0 0.00 0.00 0.00 54 1022.6
20260501213005 56 63 3.0 4.0 0.00 0.00 0.00 54 1022.6
20260501212504 56 64 4.0 7.0 0.00 0.00 0.00 54 1022.8
20260501212005 56 57 5.0 7.0 0.00 0.00 0.00 54 1022.8
20260501211503 56 52 4.0 8.0 0.00 0.00 0.00 54 1022.8
20260501211004 56 46 4.0 8.0 0.00 0.00 0.00 55 1022.6
20260501210503 56 41 4.0 6.0 0.00 0.00 0.00 56 1022.9
20260501210004 57 27 4.0 6.0 0.00 0.00 0.00 56 1022.8
20260501205504 57 19 4.0 6.0 0.00 0.00 0.00 55 1022.8
20260501205004 58 14 4.0 6.0 0.00 0.00 0.00 55 1022.9
20260501204503 58 10 4.0 6.0 0.00 0.00 0.00 56 1022.8
20260501204004 58 10 4.0 6.0 0.00 0.00 0.00 56 1022.8
20260501203505 58 13 4.0 7.0 0.00 0.00 0.00 56 1022.7
20260501203004 58 18 4.0 7.0 0.00 0.00 0.00 56 1022.7
20260501202004 59 31 4.0 6.0 0.00 0.00 0.00 56 1022.8
20260501201004 59 41 4.0 7.0 0.00 0.00 0.00 56 1022.8
20260501200503 59 40 4.0 7.0 0.00 0.00 0.00 56 1022.7
20260501200004 60 38 4.0 7.0 0.00 0.00 0.00 56 1022.7
20260501195504 60 39 4.0 8.0 0.00 0.00 0.00 55 1022.7
20260501195004 60 36 4.0 8.0 0.00 0.00 0.00 55 1022.8
20260501194504 60 31 4.0 7.0 0.00 0.00 0.00 55 1022.7
20260501194004 60 28 4.0 7.0 0.00 0.00 0.00 56 1022.8
20260501193504 60 29 4.0 7.0 0.00 0.00 0.00 56 1022.6
20260501193004 60 32 4.0 6.0 0.00 0.00 0.00 56 1022.6
20260501192504 60 34 3.0 6.0 0.00 0.00 0.00 56 1022.6
20260501191007 61 55 3.0 6.0 0.00 0.00 0.00 56 1022.5
20260501190006 61 59 3.0 5.0 0.00 0.00 0.00 55 1022.6
20260501185504 62 54 3.0 5.0 0.00 0.00 0.00 55 1022.4
20260501185003 62 51 3.0 5.0 0.00 0.00 0.00 55 1022.4
20260501184504 62 49 4.0 5.0 0.00 0.00 0.00 55 1022.2
20260501184004 63 50 3.0 5.0 0.00 0.00 0.00 54 1022.1
20260501183504 63 48 3.0 6.0 0.00 0.00 0.00 54 1022.2
20260501182507 64 47 3.0 5.0 0.00 0.00 0.00 49 1022.2
20260501182003 64 47 3.0 5.0 0.00 0.00 0.00 48 1022.1